Regional Weather Roundup
Issued by NWS

Home | Current Version | Previous Version | Graphics & Text | Print | Product List | Glossary On
Versions: 1 2 3 4 5 6 7 8 9 10 11 12 13 14 15 16 17 18 19 20 21 22 23 24 25 26 27 28 29 30 31 32 33 34 35 36 37 38 39 40 41 42 43 44 45 46 47 48 49 50
000
ASUS43 KLMK 090610
RWRKY
KENTUCKY REGIONAL WEATHER ROUNDUP
NATIONAL WEATHER SERVICE LOUISVILLE KY
100 AM EST FRI DEC 09 2016

NOTE "FAIR" INDICATES FEW OR NO CLOUDS BELOW 12,000 FEET
WITH NO SIGNIFICANT WEATHER AND/OR OBSTRUCTIONS TO VISIBILITY.

KYZ001>023-026-027-061>063-070>075-090700-
WESTERN AND SOUTH CENTRAL KENTUCKY

CITY           SKY/WX    TMP DP  RH WIND       PRES   REMARKS
PADUCAH        CLEAR     25  13  60 NW7       30.58R WCI  17
HENDERSON      CLOUDY    27  12  54 NW9       30.55F WCI  17
OWENSBORO      FLURRIES  26  16  65 N12       30.55S WCI  16
HOPKINSVILLE   CLEAR     24  15  68 NW6       30.53S WCI  16
BOWLING GREEN  CLOUDY    27  16  63 CALM      30.53R
GLASGOW        CLOUDY    26  17  67 N10       30.49S WCI  17
$$

KYZ024-025-028>034-038-045-046-053-090700-
NORTH CENTRAL KENTUCKY

CITY           SKY/WX    TMP DP  RH WIND       PRES   REMARKS
LOUISVILLE/SDF FLURRIES  25  11  55 NW17      30.51S WCI  12
LOUISVILLE/LOU FLURRIES  26  14  60 NW9       30.51F WCI  17
FORT KNOX      FLURRIES  24  14  66 NW9       30.48S WCI  14
$$

KYZ035>037-039>044-047>052-055>060-089>105-090700-
NORTHEAST KENTUCKY

CITY           SKY/WX    TMP DP  RH WIND       PRES   REMARKS
LEXINGTON      FLURRIES  24  15  68 NW7       30.46R WCI  16
COVINGTON      LGT SNOW  22  18  85 NW8       30.45R FOG     WCI  12
FRANKFORT      CLOUDY    24  12  60 NW14      30.46S WCI  12
$$

KYZ054-064>069-076>088-106>120-090700-
SOUTHEAST KENTUCKY

CITY           SKY/WX    TMP DP  RH WIND       PRES   REMARKS
JACKSON        CLOUDY    23  13  65 W10G16    30.39S WCI  12
LONDON         CLOUDY    24  14  65 NW9       30.43R WCI  14
SOMERSET       CLOUDY    27  14  59 NW8       30.47S WCI  18
MIDDLESBORO    CLOUDY    27  16  65 NW8G16    30.41S WCI  18
MONTICELLO     CLOUDY    25  17  72 NW10      30.48S WCI  15
$$





USA.gov is the U.S. government's official web portal to all federal, state and local government web resources and services.